Theta_e
317 312 310 309 300 295 289 291 293 295 295 297 300 303 304 306 305 297 321 336 340 342 345 347 348 349 348 346 345 343 342 341 341 340 340 342 342 344 343 340 341 338 337 337 338 339 339 338 340
314 314 309 302 293 288 288 292 293 296 299 300 302 302 305 306 314 323 329 338 341 343 345 345 345 348 348 346 345 345 343 341 340 340 340 340 341 344 342 339 339 336 336 337 338 338 338 339 338
313 310 302 297 290 287 288 292 296 298 299 299 299 304 307 309 314 325 333 338 342 343 345 345 345 347 347 346 344 344 343 341 340 340 340 341 344 344 341 339 336 336 335 336 337 337 337 337 337
307 303 298 292 289 291 294 297 298 297 298 301 301 304 308 315 322 328 337 339 340 342 343 343 346 348 347 345 345 343 342 340 339 339 339 341 343 341 339 337 335 334 334 335 336 334 336 337 337
304 299 293 290 290 291 294 298 297 297 296 297 301 301 308 320 323 334 337 337 337 339 342 344 345 346 346 345 344 343 341 340 338 338 338 340 341 339 337 335 334 333 332 333 334 333 334 334 333
298 296 290 287 289 293 295 299 299 296 298 298 301 304 308 320 327 330 335 336 339 338 342 343 339 341 343 343 342 341 341 340 338 338 337 338 339 336 335 333 331 330 330 332 332 332 332 332 331
297 292 289 289 290 293 297 298 297 297 297 298 302 303 307 315 326 329 336 337 338 339 340 341 341 339 337 338 338 339 339 338 337 338 338 337 337 335 333 332 328 328 329 330 331 331 330 330 329
299 296 290 291 290 291 295 296 297 298 297 301 305 303 304 313 323 327 335 336 337 338 339 339 339 339 339 337 333 334 335 335 335 334 332 330 331 331 330 327 328 327 328 329 329 329 328 327 326
298 291 289 289 291 292 295 295 296 298 299 299 302 305 308 316 322 322 327 328 333 337 337 339 339 338 337 335 331 330 330 330 329 327 324 321 320 319 320 323 327 327 328 328 327 326 324 321 320
294 289 291 291 292 293 296 295 297 295 295 296 303 308 313 318 318 318 323 327 328 330 334 337 337 338 336 337 332 330 329 326 323 321 319 320 319 319 320 320 324 325 326 326 324 321 317 311 307
293 291 293 293 295 296 295 294 295 295 292 297 301 307 314 316 317 318 319 328 328 330 334 335 337 338 336 336 334 332 327 324 323 319 320 321 319 319 317 316 315 314 313 312 312 310 308 305 306
291 294 294 297 297 296 294 295 293 295 297 298 300 311 315 317 317 318 317 321 325 327 331 334 336 336 336 335 334 333 330 325 323 321 322 320 318 317 314 313 311 310 310 307 306 305 304 303 303
291 292 294 296 296 294 295 293 293 295 297 297 299 310 313 316 318 319 320 321 325 326 329 332 334 334 335 334 334 333 331 328 324 323 326 322 318 316 315 312 311 310 308 306 304 302 300 299 299
294 295 294 295 295 295 293 291 292 294 294 295 300 303 310 312 315 314 318 320 322 327 328 331 332 333 335 334 333 333 333 330 324 322 323 321 320 319 317 314 312 310 308 305 303 299 295 294 296
296 290 292 293 295 294 294 290 292 294 295 294 295 299 303 310 312 314 321 322 323 326 327 328 332 333 334 333 334 333 332 328 325 323 323 322 321 320 318 316 316 312 308 302 297 294 293 292 292
291 289 285 290 294 294 292 286 292 295 293 294 294 293 296 301 308 313 316 323 323 325 324 325 332 332 333 333 333 333 332 330 326 324 324 322 322 321 320 318 314 311 306 300 295 293 292 290 290
288 282 285 289 294 294 291 287 293 295 293 293 294 295 294 295 298 301 310 317 323 324 324 324 328 330 333 333 333 333 332 331 328 325 324 323 323 321 320 317 313 309 304 300 296 293 292 288 288
283 284 286 285 292 291 289 290 293 294 294 294 294 294 295 296 298 300 300 309 318 323 325 325 327 328 331 329 329 331 331 331 330 328 326 325 323 321 319 313 310 308 303 299 295 292 291 290 289
287 286 284 287 292 291 290 289 292 294 293 293 293 293 294 296 301 300 299 301 308 318 323 323 324 325 326 325 326 326 326 325 328 329 327 324 323 320 318 312 309 308 304 299 294 291 290 289 289
287 285 284 288 291 290 288 289 291 293 294 296 296 294 294 294 295 298 299 297 302 313 321 322 324 324 326 326 325 321 324 316 319 315 323 324 321 320 317 312 310 308 303 298 294 292 289 289 289
286 285 285 286 287 287 287 284 287 290 292 295 296 296 296 295 295 296 297 297 298 307 318 321 323 324 326 324 312 306 308 308 308 308 309 312 321 319 316 313 310 307 304 297 294 293 292 287 289
284 289 288 287 284 280 285 278 284 288 291 292 294 295 292 295 296 296 297 296 297 304 315 321 323 322 323 315 316 314 318 313 310 310 307 307 309 318 315 313 310 307 305 299 295 294 293 291 288
287 291 288 286 283 282 281 280 283 286 287 291 293 293 293 292 294 296 296 297 297 301 311 317 319 320 318 317 317 316 315 314 307 308 307 305 304 306 309 311 309 307 306 301 297 295 293 293 291
292 289 288 285 283 278 282 282 279 284 288 289 291 293 295 295 295 296 296 297 297 302 308 313 316 317 315 317 315 316 312 308 306 306 307 305 302 301 302 304 307 307 305 302 298 296 295 294 293
289 285 277 277 276 276 281 280 282 288 291 290 292 294 295 296 296 296 297 296 297 300 306 309 313 311 313 315 312 313 311 308 306 307 308 304 300 296 299 301 302 303 304 303 300 298 296 295 294
286 285 278 272 274 277 282 279 285 291 294 294 295 296 296 295 295 295 295 296 298 299 300 305 307 308 308 308 305 305 304 305 308 306 306 304 303 302 300 299 300 301 302 302 301 299 297 295 294
287 284 287 281 270 274 279 283 288 290 292 292 293 293 293 296 296 296 296 297 297 298 299 300 302 302 303 302 301 301 303 301 299 298 297 298 299 297 297 297 297 297 298 299 299 298 296 295 294
288 291 283 281 272 271 277 278 282 288 290 292 294 294 295 297 296 295 296 296 297 297 298 300 300 301 301 301 301 300 300 299 298 295 294 293 291 291 291 294 294 294 294 295 296 295 294 293 293
287 286 286 287 282 275 273 278 286 288 292 292 294 294 293 294 294 294 295 295 296 297 297 299 299 299 299 300 299 299 298 298 296 295 293 292 289 288 288 291 291 291 291 291 292 291 290 292 291
288 287 288 281 278 281 279 282 291 293 293 293 293 293 293 292 293 293 294 295 295 296 296 297 298 298 298 298 298 298 297 295 294 293 291 289 288 286 286 286 289 289 289 289 290 289 289 290 287
Wind_Speed
5 5 3 6 5 5 0 2 3 2 2 1 2 8 9 3 2 4 1 9 16 12 10 11 12 15 16 15 13 12 13 13 14 14 14 14 14 14 19 19 17 17 19 19 20 20 19 20 22
3 3 6 3 6 4 4 3 4 2 4 5 6 4 5 2 2 6 6 12 17 13 10 9 11 15 16 15 13 13 13 14 14 14 14 14 13 14 19 18 17 18 18 18 19 20 19 21 21
1 2 5 5 4 5 5 3 5 2 1 2 3 5 5 5 1 8 9 14 15 12 10 9 13 15 15 15 13 13 13 14 14 14 14 14 12 19 19 18 17 18 17 18 19 19 19 20 21
2 5 5 5 2 1 8 7 6 5 1 3 3 6 2 4 8 7 15 15 14 11 9 12 14 15 15 15 14 14 13 14 14 14 15 14 15 18 18 18 17 16 17 17 18 19 18 20 21
4 3 4 2 3 1 1 6 7 5 3 2 3 3 2 3 0 15 15 14 15 10 10 11 13 15 15 15 15 14 14 14 14 14 15 14 16 17 17 18 17 16 16 18 19 19 20 20 20
5 3 5 1 3 3 2 7 8 4 3 3 6 5 4 0 8 9 12 12 14 13 11 10 11 12 14 15 15 14 14 14 14 14 15 15 15 17 17 17 16 16 17 18 19 20 20 21 21
6 4 5 3 3 1 5 7 8 7 6 4 9 6 3 2 6 8 11 11 12 12 11 9 9 10 11 12 12 13 14 14 14 14 14 14 13 14 16 15 16 17 17 18 19 20 20 20 20
6 5 3 1 3 4 3 3 6 6 7 2 6 6 5 7 8 8 10 10 12 12 12 11 9 8 7 8 11 11 12 12 12 13 13 12 13 13 13 11 15 17 18 18 19 20 20 20 20
3 5 1 1 3 3 3 4 1 2 6 3 2 7 5 13 8 8 5 4 7 10 12 12 11 9 7 6 8 10 11 11 12 11 12 9 5 7 8 10 15 16 17 19 19 19 20 20 20
6 4 7 1 2 3 2 2 6 4 3 1 2 3 5 11 8 11 11 11 8 9 11 13 12 11 9 7 7 6 7 6 5 6 7 6 6 5 7 9 12 14 15 17 17 17 17 12 6
3 5 5 2 1 1 1 2 2 7 3 7 9 7 8 6 10 11 9 13 14 10 10 13 14 13 13 9 7 5 4 4 4 6 6 6 6 5 4 4 4 4 7 5 7 7 6 7 5
4 3 3 4 1 1 2 2 2 5 7 4 9 14 12 13 15 15 11 11 10 11 11 13 15 13 13 10 8 8 7 6 5 6 7 7 5 6 5 4 4 4 3 6 5 5 7 8 8
4 2 3 4 4 3 0 2 4 8 7 4 4 9 13 14 14 11 11 8 9 12 11 13 12 13 12 14 10 8 8 7 7 8 8 8 6 5 6 5 4 4 4 6 7 6 6 7 8
5 3 1 3 3 1 2 0 1 7 4 6 6 12 13 13 16 7 7 10 13 13 13 12 13 12 13 14 16 10 9 8 7 6 7 9 8 7 7 7 6 6 5 4 6 6 7 6 7
4 2 4 4 4 3 3 5 9 6 5 3 8 9 10 13 8 15 18 16 15 13 13 13 14 14 15 14 15 11 10 8 8 8 9 10 9 11 9 8 7 6 5 9 8 7 7 7 7
4 5 2 3 6 2 4 9 6 4 5 7 8 8 9 13 15 14 13 15 12 12 13 12 12 14 16 14 12 11 10 10 8 8 8 11 10 12 10 7 6 8 7 8 8 7 7 6 7
5 3 4 5 6 3 4 6 6 2 4 6 7 9 10 10 11 11 12 15 15 16 14 13 14 15 17 14 12 12 13 10 9 8 9 12 11 11 10 8 8 11 8 7 8 6 8 7 6
6 4 3 4 6 2 3 10 11 10 6 9 10 10 10 11 17 15 15 15 15 16 15 16 13 16 15 10 9 9 10 9 9 10 10 13 10 12 10 7 10 9 8 9 7 10 7 8 8
6 3 2 4 3 5 8 9 11 10 8 12 11 12 12 15 15 10 11 14 13 12 15 15 15 13 11 8 10 9 10 7 9 9 12 13 11 13 11 8 10 10 10 11 11 10 13 7 9
4 4 4 4 1 3 5 13 11 9 11 15 14 12 14 9 9 11 10 9 12 17 18 16 17 15 14 11 9 5 8 3 4 3 9 12 13 13 12 12 11 11 9 12 13 15 8 3 8
4 6 5 6 2 3 5 9 7 6 6 7 10 12 11 11 12 10 10 10 10 13 17 17 19 18 16 11 7 4 5 4 3 2 3 4 11 13 13 14 12 13 11 11 15 15 14 9 10
4 5 3 3 3 4 2 10 5 6 8 8 13 14 8 9 10 9 9 8 11 15 12 15 14 13 12 13 12 11 10 7 4 5 3 3 4 11 13 13 13 14 10 12 12 11 8 8 12
7 4 3 1 2 1 2 2 10 4 5 13 13 10 11 9 9 11 9 8 7 7 9 8 9 11 11 14 13 12 8 5 4 5 8 6 3 4 7 12 13 13 11 13 15 14 13 10 10
8 6 8 5 3 4 9 9 6 5 7 5 6 7 8 5 2 1 1 3 3 5 6 8 11 11 11 13 13 15 12 9 7 7 7 6 4 3 5 7 10 11 11 13 14 16 15 13 9
5 8 2 4 2 8 1 2 9 10 11 6 10 9 8 3 4 4 3 3 3 6 7 7 10 10 12 13 11 12 9 9 10 9 8 8 6 3 7 7 7 7 10 12 13 12 13 13 12
8 9 8 9 5 5 1 8 6 6 10 10 8 7 6 4 5 6 4 3 2 6 6 6 7 5 6 7 7 6 7 5 6 8 6 7 7 8 8 8 8 8 9 9 11 10 11 12 11
6 6 5 5 2 4 6 7 10 7 11 10 11 10 8 6 5 6 6 5 4 5 3 2 3 3 5 6 6 7 7 7 7 7 5 5 5 5 8 9 9 8 7 9 10 8 11 11 11
5 8 4 2 2 5 6 5 7 5 9 9 8 6 9 9 7 6 4 4 5 4 3 2 3 6 6 7 6 6 7 6 6 6 7 8 6 6 7 8 8 7 7 8 8 7 7 10 8
4 4 3 5 6 6 2 7 7 5 6 6 7 9 8 8 8 6 4 4 4 5 4 4 3 4 4 6 6 7 6 6 6 7 7 7 6 8 8 9 9 9 9 9 8 7 7 11 10
3 7 7 6 5 4 3 10 4 10 7 6 8 6 6 4 6 6 4 4 4 5 5 5 4 4 5 5 5 6 5 5 6 6 6 7 7 6 7 7 9 9 10 10 11 11 10 12 12
Wind_Direction
321 324 78 39 60 66 225 208 162 141 47 334 68 113 124 59 119 196 246 154 133 142 151 149 145 129 123 124 124 123 116 110 102 101 100 99 98 100 99 91 88 86 85 86 87 79 72 79 85
341 28 43 75 88 76 272 289 128 229 164 128 91 89 52 113 144 120 101 156 140 143 151 149 137 132 131 131 128 124 119 114 110 107 110 103 107 105 101 96 92 89 85 86 86 78 73 85 85
56 65 83 94 107 163 178 207 165 124 160 88 79 66 134 165 112 151 142 151 137 143 146 142 140 139 138 133 132 124 122 119 117 116 110 107 99 108 102 96 91 88 88 90 87 76 78 89 86
73 12 35 83 216 194 163 179 177 139 36 54 114 69 43 223 159 141 141 144 137 143 140 145 144 144 142 136 132 131 129 126 122 118 111 109 102 105 102 101 96 93 90 91 87 77 82 88 87
36 61 62 67 281 52 77 168 168 131 152 130 120 174 46 358 357 139 143 144 143 143 145 149 147 146 143 141 139 137 132 129 125 120 115 112 104 104 105 101 99 96 95 94 87 77 81 85 84
39 94 67 137 291 139 198 183 151 121 175 169 79 109 194 299 141 150 146 149 143 146 151 152 149 147 147 145 143 140 136 133 129 126 121 118 112 109 107 106 105 103 101 97 86 84 86 86 82
111 87 175 183 200 201 183 156 137 160 159 215 152 114 301 285 208 131 141 138 142 147 148 151 153 153 146 146 144 142 140 136 134 130 123 116 112 110 111 110 109 106 104 98 92 90 89 86 83
106 92 132 201 204 225 208 136 121 136 218 114 142 168 192 222 199 118 137 142 148 155 154 154 152 154 150 151 144 141 138 137 128 116 110 106 104 104 107 107 111 111 109 102 97 93 91 86 81
103 64 165 195 183 202 198 133 60 131 113 64 338 153 220 155 156 116 126 127 156 162 160 152 157 156 149 145 151 139 136 128 125 121 116 101 103 104 102 115 116 117 113 107 101 97 92 84 76
89 109 202 223 212 192 198 148 149 122 115 70 357 15 103 142 163 156 169 179 174 168 166 158 162 164 154 156 150 138 138 141 138 137 131 119 115 113 112 113 118 120 118 108 104 99 90 77 65
152 170 202 217 243 357 154 116 189 128 206 207 193 183 160 160 178 176 184 188 184 170 172 169 168 166 166 159 159 154 147 146 151 149 139 132 124 120 110 111 109 99 77 81 86 81 72 75 75
129 193 184 181 192 130 188 346 212 197 216 193 200 180 165 174 186 191 188 189 182 180 179 174 171 168 170 170 169 166 163 168 166 170 148 141 141 142 136 134 124 101 95 94 87 89 88 75 63
150 200 156 159 164 172 236 228 256 260 245 265 139 167 187 189 198 205 199 186 185 188 187 178 176 173 172 174 179 171 175 175 176 174 164 153 148 153 147 149 135 127 122 115 107 98 90 82 77
170 146 176 202 197 186 193 23 14 272 254 234 167 202 202 199 202 189 191 197 194 194 193 185 183 175 171 180 182 181 177 180 172 174 170 165 159 161 160 157 148 141 136 111 111 113 108 93 93
109 126 328 219 197 215 120 301 231 252 302 303 212 220 222 222 201 204 204 205 196 201 191 189 186 179 180 183 181 181 189 175 179 181 169 169 168 164 165 164 162 150 125 116 109 97 95 90 82
93 54 138 297 142 201 112 266 271 301 196 259 264 245 242 240 220 215 212 209 200 192 193 188 189 187 184 184 181 182 186 183 184 179 174 175 172 170 166 165 152 143 137 130 126 126 107 100 101
12 201 201 304 198 137 155 255 254 182 44 303 272 260 237 242 248 234 219 213 204 202 192 192 188 188 187 187 177 183 186 186 184 179 181 182 175 170 167 165 154 147 145 135 136 121 126 114 104
199 196 227 222 211 155 198 256 274 275 285 253 267 254 249 247 240 227 219 216 209 206 198 197 190 190 185 174 170 179 187 188 181 184 188 183 177 171 161 151 150 144 150 138 145 132 121 124 125
149 164 202 256 211 154 225 258 263 276 294 278 258 253 249 240 247 238 225 217 204 203 201 193 186 185 169 169 172 183 184 179 185 186 180 181 177 172 161 157 155 161 164 156 149 134 133 129 133
202 198 245 290 18 165 279 263 252 252 251 249 263 261 248 247 247 245 235 208 196 198 200 195 194 182 184 181 177 166 172 161 172 152 173 178 172 175 171 165 172 169 151 155 155 150 143 113 174
196 165 201 214 6 273 305 281 257 286 260 273 253 251 258 235 252 247 239 218 202 200 198 196 196 191 184 170 125 81 76 64 109 169 168 181 179 179 176 174 173 172 165 172 169 167 171 156 193
216 212 190 200 93 241 23 285 285 251 278 294 281 266 280 246 247 248 236 223 209 211 201 203 193 184 173 160 166 170 182 175 194 159 144 182 186 185 181 180 173 175 178 174 179 176 185 161 182
221 156 172 139 144 31 302 327 280 280 265 258 269 282 275 253 251 264 262 246 229 199 183 178 170 174 165 176 178 177 179 175 150 147 167 168 198 194 183 181 176 184 181 180 178 184 179 177 177
146 80 42 46 62 287 196 182 280 238 218 274 266 293 300 316 338 311 281 156 167 146 149 156 164 173 170 181 182 188 180 157 154 164 173 183 183 186 189 179 184 180 187 183 186 191 189 189 188
97 88 336 337 348 237 15 225 244 266 259 238 283 298 302 270 316 331 22 46 125 166 168 164 171 183 183 186 185 188 175 171 178 175 183 174 175 187 199 184 183 187 188 186 186 194 191 196 190
184 156 162 196 202 260 262 241 249 247 283 262 277 289 352 320 301 292 297 301 222 202 195 189 191 181 173 171 163 162 160 168 187 180 178 190 196 200 180 191 192 191 189 190 192 191 200 197 202
195 196 169 88 22 56 227 288 301 295 288 306 324 350 338 290 266 272 275 275 302 318 296 235 188 136 155 158 159 173 171 163 173 172 168 181 181 171 179 189 192 190 188 188 187 196 198 195 197
156 163 90 15 164 259 269 259 224 285 295 1 13 8 357 348 326 299 279 302 326 320 307 276 198 192 177 169 176 174 181 178 170 160 182 183 180 173 174 185 191 187 189 189 187 190 191 191 199
145 178 161 139 158 183 245 256 213 181 73 69 6 4 358 351 352 351 331 343 327 314 316 275 232 196 185 184 175 178 191 190 180 182 185 186 171 174 180 185 187 189 188 186 191 190 180 194 192
173 177 158 147 227 240 154 255 204 121 106 65 25 354 338 11 2 3 4 344 325 288 275 264 256 240 221 208 194 201 197 188 192 190 185 173 185 182 184 179 189 192 191 190 195 193 191 194 191